Location: Oberkirch
(48.5323°N, 8.0787°E)
Time: 15:50:05
(UTC+00:00)

Tiros 1 despin weight - Pass Details

Date: 16 February 2026
Orbit: 556 x 593 km, 48.2° (Epoch: 5 March)

Event Time Altitude Azimuth Distance (km) Brightness Sun altitude
Rises 18:42:58 0° 277° (W) 2,735 ? -19.2°
Reaches altitude 10° 18:45:13 10° 276° (W) 1,839 ? -19.5°
Maximum altitude 18:49:24 77° 192° (SSW) 576 ? -20.2°
Enters shadow 18:50:11 57° 123° (ESE) 660 ? -20.4°
